Regional Weather Roundup
Issued by NWS

Home | Current Version | Previous Version | Text Only | Print | Product List | Glossary On
Versions: 1 2 3 4 5 6 7 8 9 10 11 12 13 14 15 16 17 18 19 20 21 22 23 24 25 26 27 28 29 30 31 32 33 34 35 36 37 38 39 40 41 42 43 44 45 46 47 48 49 50
000
ASUS44 KLIX 041807
RWRLA
LOUISIANA WEATHER ROUNDUP
NATIONAL WEATHER SERVICE NEW ORLEANS LA
100 PM CDT MON MAY 04 2015

NOTE: "FAIR" INDICATES FEW OR NO CLOUDS BELOW 12,000 FEET WITH NO
      SIGNIFICANT WEATHER AND/OR OBSTRUCTIONS TO VISIBILITY.
      SKY/WX - SKY CONDITION AND SIGNIFICANT WEATHER.
      TMP - AIR TEMPERATURE.    DP   - DEWPOINT TEMPERATURE.
      RH  - RELATIVE HUMIDITY.  PRES - PRESSURE.
      HX  - HEAT INDEX.         WCI  - WIND CHILL INDEX.

*  THESE STATIONS ARE NOT NWS OR FAA STATIONS AND ARE NOT UNDER
   NWS QUALITY CONTROL.

LAZ040-048-061>063-065-066-069-041900-
SOUTHEAST LOUISIANA

CITY           SKY/WX    TMP DP  RH WIND       PRES   REMARKS
N.O. AUDUBON     N/A     81  61  50 MISG        N/A
6HR MIN TEMP:  70; 6HR MAX TEMP:  82;

N.O. INTL ARPT CLOUDY    79  60  52 E14       30.19R
6HR MIN TEMP:  70; 6HR MAX TEMP:  81; 6HR PCP:  0.02;

N.O. LAKEFRONT CLOUDY    80  60  50 E18G26    30.19S
6HR MIN TEMP:  73; 6HR MAX TEMP:  81;

SLIDELL        PTSUNNY   79  64  60 SE9G18    30.20S
6HR MIN TEMP:  61; 6HR MAX TEMP:  81;

BATON ROUGE    PTSUNNY   82  64  54 E15       30.16F
6HR MIN TEMP:  59; 6HR MAX TEMP:  82;

BOOTHVILLE     PTSUNNY   79  66  64 E13       30.20S
6HR MIN TEMP:  70; 6HR MAX TEMP:  79;

BELLE CHASSE   CLOUDY    79  61  53 E16       30.19R
6HR MIN TEMP:  71; 6HR MAX TEMP:  81;

BOGALUSA*        N/A     82  61  49 SE10      30.22F
6HR MIN TEMP:  60; 6HR MAX TEMP:  82;

GALLIANO*      CLOUDY    79  65  62 SE6       30.19R
6HR MIN TEMP:  64; 6HR MAX TEMP:  82;

NEW ROADS*     FAIR      80  63  55 E15       30.15F
6HR MIN TEMP:  60; 6HR MAX TEMP:  81;

GONZALES*      CLOUDY    79  66  64 E10       30.16S
6HR MIN TEMP:  60; 6HR MAX TEMP:  81;

HAMMOND*       PTSUNNY   82  61  47 SE12      30.20F
HOUMA*         PTSUNNY   77  64  65 E15       30.17R
PORT FOURCHON* MOCLDY    77  66  69 E15G24    30.20S

$$

LAZ041-044-053-054-041900-
SOUTHWEST LOUISIANA

CITY           SKY/WX    TMP DP  RH WIND       PRES   REMARKS
LAKE CHARLES   MOSUNNY   79  57  46 CALM      30.14F
6HR MIN TEMP:  62; 6HR MAX TEMP:  80;

LAFAYETTE      CLOUDY    79  64  60 NE7       30.15F
6HR MIN TEMP:  63; 6HR MAX TEMP:  80;

PATTERSON      PTSUNNY  N/A N/A N/A SE10      30.16S
SALT POINT       N/A     80  66  62 E8        30.14R
6HR MIN TEMP:  64; 6HR MAX TEMP:  81;

NEW IBERIA       N/A    N/A N/A N/A MISG      30.15F
6HR MIN TEMP:  64; 6HR MAX TEMP:  81;

CHENAULT AIRPK NOT AVBL

$$

LAZ027-028-041900-
CENTRAL LOUISIANA

CITY           SKY/WX    TMP DP  RH WIND       PRES   REMARKS
FORT POLK      SUNNY     80  55  42 SE10      30.14F
6HR MIN TEMP:  60; 6HR MAX TEMP:  80;

ALEXANDRIA INT SUNNY     82  56  40 E14       30.14F
6HR MIN TEMP:  62; 6HR MAX TEMP:  83;

ALEXANDRIA     MOSUNNY   82  59  45 E12G20    30.16F
6HR MIN TEMP:  58; 6HR MAX TEMP:  82;


$$

LAZ001-002-041900-
NORTHWEST LOUISIANA

CITY           SKY/WX    TMP DP  RH WIND       PRES   REMARKS
SHREVEPORT     MOSUNNY   82  60  47 SE12G17   30.14F
6HR MIN TEMP:  57; 6HR MAX TEMP:  82;

BARKSDALE AFB  MOSUNNY   82  60  47 SE12      30.15F
6HR MIN TEMP:  56; 6HR MAX TEMP:  82;

DTN SHREVEPORT MOSUNNY   80  57  45 S8        30.15F
6HR MIN TEMP:  58; 6HR MAX TEMP:  80;


$$

LAZ014-016-041900-
NORTHEAST LOUISIANA

CITY           SKY/WX    TMP DP  RH WIND       PRES   REMARKS
MONROE         MOSUNNY   82  59  45 E6        30.18F
6HR MIN TEMP:  58; 6HR MAX TEMP:  82;

TALLULAH       SUNNY     81  59  47 VRB5      30.19F
6HR MIN TEMP:  61; 6HR MAX TEMP:  81;


$$




USA.gov is the U.S. government's official web portal to all federal, state and local government web resources and services.